Terminal Aerodrome Forecast
Issued by NWS Atlanta, GA

Home | Current Version | Previous Version | Text Only | Print | Product List | Glossary On
Versions: 1 2 3 4 5 6 7 8 9 10 11 12 13 14 15 16 17 18 19 20 21 22 23 24 25 26 27 28 29 30 31 32 33 34 35 36 37 38 39 40 41
000
FTUS42 KFFC 040753 AAA
TAFATL
TAF AMD
KATL 040753Z 0408/0512 VRB03KT P6SM BKN250
     FM041200 35004KT P6SM SCT250
     FM041700 31005KT P6SM SCT050
     FM050200 27003KT P6SM FEW080 SCT250=

USA.gov is the U.S. government's official web portal to all federal, state and local government web resources and services.